Back to catalog

STARLINK-33589

AliveCommunicationsVLEO
NORAD 62759·PAYLOAD·🇺🇸 United States

Launched Jan 21, 2025 from Vandenberg Space Force Base

Loading…

Next Passes (next 24 hours)

TLE

FreshSource: CelesTrak SupGP

Epoch: Sep 14, 2026, 15:19 UTC

1 62759C 25015B   26257.63868056  .00060209  00000+0  19363-2 0  2573
2 62759  53.1571 163.6174 0001267  96.0595  22.4346 15.31669429    19

Track STARLINK-33589 in real time with AllMySat

Download on the App Store